FENGYUN 1C DEB

Satellite information

Favourite Embed

Satellite Type and Status

DEBRISIN ORBIT

Key statistics

Satellite FENGYUN 1C DEB at a glance.

Uptime

9495

Days in orbit

Revolutions

≈ 14.3

Per day

Orbit

SSO

Sun Synchronous Orbit

Inclination

99.0

Latest

Satellite identification and parameters

Extended collection of information and parameters for FENGYUN 1C DEB.

Object identification

Identified? True

Debris? True

Object name: FENGYUN 1C DEB

International designator: 1999-025ENT

Object number (NORAD): 37918

Object ID (CCSDS): 37918

Country: PEOPLES REPUBLIC OF CHINA (PRC)

Current information (Y/N): Y

RCS size: SMALL

Orbital parameters

Period: 100.459 minutes

Inclination: 99.0068 deg

SMA: 7158.444 km

Apoapsis: 820.134 km

Periapsis: 740.484 km

RAAN: 67.5569 deg

Eccentricy: 0.0055634

Argument of periapsis: 202.5971 deg

Mean anomaly: 157.2762 deg

Mean motion: 14.33424435 rev/day

Mean motion (dot): 0.00001822 rev/day2

B* drag term: 0.00066567 1/REarth

Two-line elements (TLE)

Creation date: May 8, 2025, 3:01 a.m.

Reference frame: TEME

Reference center: EARTH

Epoch: May 7, 2025, 6:33 a.m. UTC

TLE line 0: 0 FENGYUN 1C DEB

TLE line 1: 1 37918U 99025ENT 25127.27336995 .00001822 00000-0 66567-3 0 9990

TLE line 2: 2 37918 99.0068 67.5569 0055634 202.5971 157.2762 14.33424435 3971

Live tracking on map

Real-time ground track for satellite FENGYUN 1C DEB.

In-orbit conjunctions

A list of the most updated potential collisions computed for object FENGYUN 1C DEB.

Target Orbit TCA Probability of collision Miss distance Type
CZ-6A DEB LEO 2024-12-27 15:26:58 0.0002428815 456.0 (m) DEBRIS
NOAA 16 DEB SSO 2024-11-13 03:59:11 0.0004300431 493.0 (m) DEBRIS

Associated space launch

Chinese polar orbiting meteorological satellite

FENGYUN 1C DEB was lifted into orbit during the mission ‘Long March 4B | Feng Yun 1C’, on board a Long March 4B space rocket.

The launch took place on May 10, 1999, 1:33 a.m. from Launch Complex 7.

For more information about the launch, click the button.

Launch to space Long March 4B | Feng Yun 1C
Long March 4B | Feng Yun 1C

Agency: N/A

Status: Launch Successful

Launch date: May 10, 1999, 1:33 a.m. UTC

Rocket: Long March 4B

Launch pad: Launch Complex 7

Location: Taiyuan Satellite Launch Center, People's Republic of China

...

Latest news about this satellite

There are no fresh news available about this satellite. Check back as we update our databases every day.


Newsletter sign-up

Weekly statistics, charts and insights to help you stay on top of the space industry.